• en Belgique
  • Liste des pays
  • À 7 jours
  • Température de l'eau
  • Carte satellitaire
  • Carte météo
  • Widgets météo
  • user-avatar
    Se connecter

    Météo par heure à Ath

    Ce jour, 24 Février, Samedi

    Heure Température Précipitation Vent Pression Humidité
    00:00 -4°C° 0 mm 4 m/s 760 mmHg 53%
    01:00 -4°C° 0 mm 4 m/s 760 mmHg 50%
    02:00 -4°C° 0 mm 4 m/s 760 mmHg 48%
    03:00 -5°C° 0 mm 5 m/s 760 mmHg 46%
    04:00 -5°C° 0 mm 5 m/s 761 mmHg 44%
    05:00 -5°C° 0 mm 5 m/s 761 mmHg 42%
    06:00 -5°C° 0 mm 5 m/s 761 mmHg 39%
    07:00 -4°C° 0 mm 6 m/s 761 mmHg 35%
    08:00 -3°C° 0 mm 7 m/s 761 mmHg 32%
    09:00 -2°C° 0 mm 7 m/s 762 mmHg 28%
    10:00 -1°C° 0 mm 7 m/s 762 mmHg 28%
    11:00 +2°C° 0 mm 7 m/s 762 mmHg 28%
    12:00 +2°C° 0 mm 8 m/s 762 mmHg 29%
    13:00 +2°C° 0 mm 8 m/s 762 mmHg 32%
    14:00 +2°C° 0 mm 8 m/s 762 mmHg 34%
    15:00 +4°C° 0 mm 8 m/s 762 mmHg 37%
    16:00 +2°C° 0 mm 7 m/s 762 mmHg 42%
    17:00 0°C° 0 mm 7 m/s 762 mmHg 47%
    18:00 -2°C° 0 mm 6 m/s 763 mmHg 53%
    19:00 -2°C° 0 mm 6 m/s 763 mmHg 53%
    20:00 -3°C° 0 mm 6 m/s 764 mmHg 53%
    21:00 -4°C° 0 mm 6 m/s 764 mmHg 53%
    22:00 -4°C° 0 mm 6 m/s 764 mmHg 51%
    23:00 -4°C° 0 mm 6 m/s 765 mmHg 50%

    Demain, 25 Février, Dimanche

    Heure Température Précipitation Vent Pression Humidité
    00:00 -5°C° 0 mm 5 m/s 765 mmHg 48%
    01:00 -5°C° 0 mm 5 m/s 765 mmHg 48%
    02:00 -6°C° 0 mm 5 m/s 765 mmHg 47%
    03:00 -6°C° 0 mm 5 m/s 765 mmHg 46%
    04:00 -6°C° 0 mm 5 m/s 765 mmHg 46%
    05:00 -6°C° 0 mm 6 m/s 766 mmHg 45%
    06:00 -6°C° 0 mm 6 m/s 766 mmHg 45%
    07:00 -6°C° 0 mm 6 m/s 766 mmHg 41%
    08:00 -6°C° 0 mm 7 m/s 766 mmHg 38%
    09:00 -4°C° 0 mm 7 m/s 767 mmHg 34%
    10:00 -4°C° 0 mm 7 m/s 767 mmHg 31%
    11:00 -3°C° 0 mm 7 m/s 767 mmHg 27%
    12:00 -2°C° 0 mm 7 m/s 767 mmHg 24%
    13:00 -2°C° 0 mm 7 m/s 766 mmHg 24%
    14:00 -1°C° 0 mm 7 m/s 766 mmHg 25%
    15:00 -1°C° 0 mm 7 m/s 766 mmHg 25%
    16:00 -3°C° 0 mm 7 m/s 766 mmHg 29%
    17:00 -4°C° 0 mm 6 m/s 767 mmHg 33%
    18:00 -5°C° 0 mm 5 m/s 767 mmHg 37%
    19:00 -5°C° 0 mm 6 m/s 767 mmHg 39%
    20:00 -5°C° 0 mm 6 m/s 768 mmHg 42%
    21:00 -6°C° 0 mm 6 m/s 768 mmHg 44%
    22:00 -6°C° 0 mm 5 m/s 768 mmHg 47%
    23:00 -6°C° 0 mm 5 m/s 768 mmHg 50%

    Après-demain, 26 Février, Lundi

    Heure Température Précipitation Vent Pression Humidité
    00:00 -6°C° 0 mm 5 m/s 768 mmHg 53%
    01:00 -6°C° 0 mm 5 m/s 768 mmHg 55%
    02:00 -6°C° 0 mm 5 m/s 768 mmHg 58%
    03:00 -7°C° 0 mm 5 m/s 768 mmHg 61%
    04:00 -7°C° 0 mm 5 m/s 768 mmHg 62%
    05:00 -7°C° 0 mm 5 m/s 769 mmHg 62%
    06:00 -7°C° 0 mm 5 m/s 769 mmHg 63%
    07:00 -6°C° 0 mm 6 m/s 769 mmHg 58%
    08:00 -7°C° 0 mm 7 m/s 769 mmHg 53%
    09:00 -6°C° 0 mm 8 m/s 769 mmHg 49%
    10:00 -6°C° 0 mm 8 m/s 769 mmHg 45%
    11:00 -5°C° 0 mm 8 m/s 768 mmHg 41%
    12:00 -4°C° 0 mm 8 m/s 768 mmHg 36%
    13:00 -4°C° 0 mm 8 m/s 768 mmHg 37%
    14:00 -4°C° 0 mm 8 m/s 767 mmHg 37%
    15:00 -4°C° 0 mm 8 m/s 767 mmHg 38%
    16:00 -4°C° 0 mm 7 m/s 767 mmHg 41%
    17:00 -5°C° 0 mm 6 m/s 767 mmHg 44%
    18:00 -5°C° 0 mm 5 m/s 767 mmHg 47%
    19:00 -6°C° 0 mm 5 m/s 767 mmHg 49%
    20:00 -6°C° 0 mm 5 m/s 767 mmHg 52%
    21:00 -6°C° 0 mm 5 m/s 767 mmHg 54%
    22:00 -6°C° 0 mm 5 m/s 766 mmHg 55%
    23:00 -7°C° 0 mm 4 m/s 766 mmHg 57%

    27 Février, Mardi

    Heure Température Précipitation Vent Pression Humidité
    00:00 -7°C° 0 mm 4 m/s 766 mmHg 59%
    01:00 -7°C° 0 mm 4 m/s 766 mmHg 61%
    02:00 -7°C° 0 mm 4 m/s 765 mmHg 62%
    03:00 -7°C° 0 mm 4 m/s 765 mmHg 63%
    04:00 -7°C° 0 mm 4 m/s 764 mmHg 63%
    05:00 -8°C° 0 mm 4 m/s 764 mmHg 63%
    06:00 -8°C° 0 mm 4 m/s 764 mmHg 62%
    07:00 -7°C° 0 mm 4 m/s 764 mmHg 59%
    08:00 -5°C° 0 mm 4 m/s 764 mmHg 55%
    09:00 -6°C° 0 mm 5 m/s 764 mmHg 51%
    10:00 -5°C° 0 mm 5 m/s 763 mmHg 47%
    11:00 -4°C° 0 mm 5 m/s 763 mmHg 43%
    12:00 -2°C° 0 mm 5 m/s 762 mmHg 38%
    13:00 -2°C° 0 mm 5 m/s 762 mmHg 38%
    14:00 -2°C° 0 mm 5 m/s 762 mmHg 38%
    15:00 -2°C° 0 mm 5 m/s 761 mmHg 38%
    16:00 -3°C° 0 mm 4 m/s 761 mmHg 42%
    17:00 -4°C° 0 mm 3 m/s 761 mmHg 46%
    18:00 -5°C° 0 mm 3 m/s 761 mmHg 51%
    19:00 -5°C° 0 mm 3 m/s 761 mmHg 53%
    20:00 -6°C° 0 mm 3 m/s 761 mmHg 54%
    21:00 -5°C° 0 mm 2 m/s 761 mmHg 56%
    22:00 -5°C° 0 mm 2 m/s 761 mmHg 57%
    23:00 -5°C° 0 mm 2 m/s 761 mmHg 59%

    28 Février, Mercredi

    Heure Température Précipitation Vent Pression Humidité
    00:00 -5°C° 0 mm 2 m/s 760 mmHg 60%
    01:00 -6°C° 0 mm 2 m/s 760 mmHg 60%
    02:00 -6°C° 0 mm 2 m/s 760 mmHg 61%
    03:00 -6°C° 0 mm 2 m/s 760 mmHg 61%
    04:00 -6°C° 0 mm 2 m/s 760 mmHg 60%
    05:00 -6°C° 0 mm 2 m/s 760 mmHg 59%
    06:00 -7°C° 0 mm 2 m/s 760 mmHg 58%
    07:00 -7°C° 0 mm 3 m/s 760 mmHg 49%
    08:00 -7°C° 0 mm 4 m/s 760 mmHg 41%
    09:00 -6°C° 0 mm 5 m/s 761 mmHg 33%
    10:00 -6°C° 0 mm 6 m/s 760 mmHg 29%
    11:00 -5°C° 0 mm 6 m/s 760 mmHg 26%
    12:00 -5°C° 0 mm 6 m/s 760 mmHg 22%
    13:00 -6°C° 0 mm 7 m/s 759 mmHg 23%
    14:00 -6°C° 0 mm 7 m/s 759 mmHg 24%
    15:00 -6°C° 0 mm 7 m/s 758 mmHg 26%
    16:00 -6°C° 0 mm 6 m/s 758 mmHg 29%
    17:00 -6°C° 0 mm 6 m/s 758 mmHg 32%
    18:00 -7°C° 0 mm 5 m/s 758 mmHg 35%
    19:00 -8°C° 0 mm 6 m/s 757 mmHg 35%
    20:00 -8°C° 0 mm 6 m/s 757 mmHg 36%
    21:00 -8°C° 0 mm 6 m/s 757 mmHg 36%
    22:00 -8°C° 0 mm 7 m/s 756 mmHg 37%
    23:00 -8°C° 0 mm 7 m/s 756 mmHg 38%

    1 Mars, Jeudi

    Heure Température Précipitation Vent Pression Humidité
    00:00 -8°C° 0 mm 7 m/s 755 mmHg 39%
    01:00 -8°C° 0 mm 8 m/s 754 mmHg 39%
    02:00 -8°C° 0 mm 8 m/s 753 mmHg 40%
    03:00 -8°C° 0 mm 8 m/s 753 mmHg 40%
    04:00 -8°C° 0 mm 8 m/s 752 mmHg 40%
    05:00 -8°C° 0 mm 8 m/s 751 mmHg 41%
    06:00 -8°C° 0 mm 8 m/s 750 mmHg 41%
    07:00 -8°C° 0 mm 8 m/s 750 mmHg 41%
    08:00 -8°C° 0 mm 9 m/s 749 mmHg 40%
    09:00 -8°C° 0 mm 9 m/s 749 mmHg 40%
    10:00 -6°C° 0 mm 9 m/s 748 mmHg 41%
    11:00 -5°C° 0 mm 9 m/s 748 mmHg 42%
    12:00 -4°C° 0 mm 8 m/s 747 mmHg 43%
    13:00 -4°C° 0 mm 8 m/s 746 mmHg 45%
    14:00 -4°C° 0 mm 8 m/s 746 mmHg 46%
    15:00 -2°C° 0 mm 8 m/s 745 mmHg 48%
    16:00 -2°C° 0 mm 8 m/s 745 mmHg 48%
    17:00 -4°C° 0 mm 8 m/s 744 mmHg 49%
    18:00 -4°C° 0 mm 8 m/s 744 mmHg 50%
    19:00 -4°C° 0 mm 8 m/s 743 mmHg 49%
    20:00 -4°C° 0 mm 8 m/s 743 mmHg 49%
    21:00 -4°C° 0 mm 8 m/s 743 mmHg 48%
    22:00 -4°C° 0 mm 8 m/s 742 mmHg 48%
    23:00 -4°C° 0 mm 8 m/s 741 mmHg 48%
    Voir plus